This demonstration page uses our WeatherBlox Daily Observations layout. Learn more.

Left ArrowRight Arrow

41.12389, -100.76542

Hourly Observations for July 4, 2022

Temp ( °F °C ) Dew Point ( °F °C ) Humidity (%) Winds ( mph kmh ) Pressure ( in mb ) Visibility ( mi km ) Precip ( " mm )
12:53 am 00:53 Mostly Clear 72 22.2 66 18.9 82 82 E 10 17 29.77 1008 10 16 0.00 0.00
1:53 am 01:53 Mostly Clear 71 21.7 67 19.4 87 87 E 10 17 29.74 1007 10 16 0.00 0.00
2:53 am 02:53 Clear 70 21.1 67 19.4 90 90 E 5 7 29.73 1007 10 16 0.00 0.00
3:53 am 03:53 Clear 69 20.6 66 18.9 90 90 ESE 5 7 29.71 1006 10 16 0.00 0.00
4:53 am 04:53 Clear 69 20.6 66 18.9 90 90 NNE 3 6 29.72 1006 10 16 0.00 0.00
5:53 am 05:53 Clear 70 21.1 66 18.9 87 87 Calm 29.71 1006 10 16 0.00 0.00
6:53 am 06:53 Sunny 71 21.7 65 18.3 81 81 SW 5 7 29.73 1007 10 16 0.00 0.00
7:53 am 07:53 Sunny 72 22.2 67 19.4 84 84 NNW 6 9 29.74 1007 10 16 0.00 0.00
8:53 am 08:53 Mostly Sunny 73 22.8 65 18.3 76 76 SSW 3 6 29.76 1008 10 16 0.00 0.00
9:53 am 09:53 Partly Cloudy 75 23.9 65 18.3 71 71 Calm 29.78 1009 10 16 0.00 0.00
10:53 am 10:53 Sunny 78 25.6 68 20 71 71 NW 6 9 29.79 1009 10 16 0.00 0.00
11:53 am 11:53 Sunny 85 29.4 68 20 57 57 W 8 13 29.78 1009 10 16 0.00 0.00
12:53 pm 12:53 Sunny 90 32.2 67 19.4 47 47 VRB 5 7 29.77 1008 10 16 0.00 0.00
1:53 pm 13:53 Sunny 93 33.9 66 18.9 41 41 SE 5 7 29.75 1007 10 16 0.00 0.00
2:53 pm 14:53 Sunny 97 36.1 61 16.1 30 30 SE 3 6 29.74 1007 10 16 0.00 0.00
3:53 pm 15:53 Sunny 99 37.2 61 16.1 29 29 S 8 13 29.73 1007 10 16 0.00 0.00
4:53 pm 16:53 Sunny 100 37.8 57 13.9 24 24 SSE 6 9 29.72 1006 10 16 0.00 0.00
5:53 pm 17:53 Sunny 100 37.8 57 13.9 24 24 S 7 11 29.71 1006 10 16 0.00 0.00
6:53 pm 18:53 Sunny 97 36.1 64 17.8 34 34 SE 9 15 29.70 1006 10 16 0.00 0.00
7:53 pm 19:53 Sunny 94 34.4 65 18.3 38 38 ESE 8 13 29.71 1006 10 16 0.00 0.00
8:53 pm 20:53 Sunny 85 29.4 69 20.6 59 59 ESE 6 9 29.72 1007 10 16 0.00 0.00
9:53 pm 21:53 Clear 80 26.7 70 21.1 71 71 E 5 7 29.75 1007 10 16 0.00 0.00
10:53 pm 22:53 Clear 77 25 69 20.6 77 77 ENE 5 7 29.77 1008 10 16 0.00 0.00
11:53 pm 23:53 Clear 75 23.9 68 20 79 79 ENE 5 7 29.78 1009 10 16 0.00 0.00

Powered by AerisWeather